Lid_Strength_Index
2 2 1 1 1 1 1 1 0 -0 -0 0 1 1 1 0 -0 -1 -2 -2 -2 -2 -2 -1 -1 -1 -1 -1 -1 -0 -0 1 -1 1 2 0 -0 -0 -0 -0 -0 -1 -1
3 2 2 1 1 1 1 0 0 0 -0 0 0 0 0 0 -0 -1 -1 -2 -2 -2 -1 -1 -1 -1 -0 -1 -1 -1 1 0 -0 2 2 4 3 1 1 0 -0 -0 -1
3 3 3 2 1 1 1 1 0 0 -0 -0 -0 -1 -1 -0 0 0 -0 -1 -1 -2 -2 -2 -1 -1 -1 0 -1 -1 -0 1 0 -0 2 4 6 3 2 0 0 -1 0
3 3 3 2 2 1 1 0 0 0 -0 -0 0 1 1 2 1 0 -0 -0 -2 -1 -1 -2 -1 -1 -1 -1 -1 -0 -0 -0 1 0 0 -0 1 4 4 2 0 -0 0
3 3 3 2 1 1 1 1 0 0 -0 0 -0 1 1 1 0 0 -0 -1 -1 -1 -1 -2 -2 -1 -1 -1 -1 -1 -1 -0 0 2 1 0 1 0 3 4 3 0 -0
3 2 2 2 2 1 1 1 1 1 0 0 0 1 1 1 1 1 1 0 0 -0 -1 -1 -1 -2 -1 -1 -1 -1 -1 -1 -0 0 1 1 2 3 2 3 2 2 1
3 3 3 2 2 2 1 1 1 1 0 0 0 0 0 0 1 1 1 1 1 1 -0 -1 -1 -0 -1 -1 -1 -1 -1 -1 -0 -0 1 0 0 0 1 2 2 2 1
3 3 2 2 2 2 1 1 1 1 1 1 1 0 0 1 1 0 1 1 0 0 -1 -0 -1 -1 -1 -1 -1 -0 -0 -1 -0 -0 -0 0 0 -0 0 1 2 3 2
3 3 2 2 2 2 1 1 1 1 1 1 0 0 0 0 0 -0 -0 0 -0 0 -0 -0 -0 -1 -1 -1 -1 -0 -0 -1 -1 -0 -0 0 0 -0 -0 0 1 2 4
3 2 2 2 2 1 1 1 1 1 1 1 1 1 0 0 -0 -0 0 0 0 -0 -0 -0 -0 -1 -1 -1 -1 -0 -1 -0 -0 -0 -0 -0 -0 -0 -0 0 0 1 2
3 2 2 2 2 1 1 1 1 1 1 1 1 1 0 0 0 0 0 0 -0 -1 -0 -0 -0 -0 -0 -0 -1 -0 -0 -0 -0 -0 -0 0 -0 0 0 -0 0 1 1
2 2 2 2 2 2 1 1 1 1 1 1 1 1 0 0 0 0 0 -0 0 -0 -0 -0 -0 -0 -0 -1 -0 0 -0 0 0 0 0 0 0 0 0 0 0 1 0
3 2 2 2 2 2 2 1 1 1 1 1 1 1 1 1 0 0 0 -0 0 -0 -0 -0 -0 -0 -0 -0 -0 -0 -0 0 0 0 0 0 0 0 1 0 1 1 1
3 3 2 2 2 2 2 1 1 1 1 1 1 1 1 1 1 0 0 0 -0 0 -0 -0 -0 0 -0 -0 -0 -0 0 -0 0 -0 -0 0 -0 -0 0 0 0 1 1
3 3 3 2 2 2 2 1 1 1 1 1 1 1 1 0 0 0 0 -0 0 0 -0 0 0 -0 0 0 -0 -0 0 0 0 -0 -0 -0 -0 1 1 0 0 0 1
4 3 3 3 2 2 2 1 1 1 0 1 1 1 1 1 1 0 0 0 0 0 0 0 0 0 0 2 2 0 0 0 0 1 0 -0 0 0 2 2 2 1 1
4 4 3 3 2 2 2 2 1 1 1 1 1 1 1 1 1 1 1 1 1 0 1 0 0 1 0 3 3 2 -0 0 0 0 0 0 -0 -0 -0 2 2 3 3
4 3 3 3 2 1 1 1 1 1 1 1 1 1 1 1 1 1 1 1 1 1 1 1 0 0 0 4 4 3 -0 0 0 0 -0 0 0 -0 0 0 0 0 -0
3 2 2 2 2 2 1 1 1 1 1 2 1 1 1 1 1 1 1 1 1 1 1 1 0 1 0 5 5 3 0 1 0 0 -0 -0 0 5 4 0 1 1 1
2 2 2 2 2 2 1 2 2 2 2 1 1 1 1 1 1 1 1 1 1 1 1 1 0 2 0 6 6 3 1 1 1 0 -0 3 2 5 5 0 1 2 1
2 1 1 2 2 1 1 2 2 2 1 1 1 1 1 1 1 0 0 1 1 1 1 1 0 0 1 0 7 7 0 1 1 1 1 0 7 7 7 7 1 1 3
2 2 2 2 1 1 1 2 2 1 1 1 1 1 1 1 1 1 1 2 2 2 1 1 1 1 1 6 9 9 8 3 1 2 1 2 6 8 7 6 5 5 4
2 2 2 1 1 1 1 2 1 1 1 1 1 1 1 0 0 1 2 2 3 4 4 5 3 2 2 3 9 10 9 7 1 1 4 7 9 8 7 5 4 5 2
2 2 2 2 2 1 1 1 1 0 0 1 1 1 1 1 1 1 1 2 2 3 2 3 4 2 2 1 2 2 4 6 4 5 4 4 4 5 3 1 2 1 1
2 2 2 2 2 1 1 1 0 0 1 1 1 1 1 1 1 1 1 2 1 2 2 2 2 3 3 2 5 4 1 1 2 2 1 2 1 1 1 1 1 1 1
2 2 1 1 1 1 1 1 0 0 1 1 1 1 1 1 1 1 2 9 7 11 13 12 5 2 4 8 10 10 9 9 8 1 2 2 1 2 1 1 1 1 1